Regional Weather Roundup
Issued by NWS Upton, NY

Home | Current Version | Previous Version | Text Only | Print | Product List | Glossary On
Versions: 1 2 3 4 5 6 7 8 9 10 11 12 13 14 15 16 17 18 19 20 21 22 23 24 25 26 27 28 29 30 31 32 33 34 35 36 37 38 39 40 41 42 43 44 45 46 47 48 49 50
177
ASUS41 KOKX 070404
RWROKX

REGIONAL WEATHER ROUNDUP
NATIONAL WEATHER SERVICE NEW YORK NY
1100 PM EST SAT FEB 06 2016

NOTE: "FAIR" INDICATES FEW OR NO CLOUDS BELOW 12,000 FEET WITH NO
SIGNIFICANT WEATHER AND/OR OBSTRUCTIONS TO VISIBILITY.

NYZ071-072-176-178-NJZ106-104-070500-
NEW YORK CITY METRO AREA


CITY           SKY/WX    TMP DP  RH WIND       PRES   REMARKS
CENTRAL PARK   CLEAR     37  21  52 VRB7      30.30S WCI  32
LAGUARDIA APRT PTCLDY    38  23  55 SW8       30.28F WCI  32
KENNEDY INTL   PTCLDY    35  24  64 SW10      30.31S WCI  27
NEWARK/LIBERTY PTCLDY    34  23  64 SW8       30.29F WCI  27
BRNX BOT. GARD   N/A     37  23  56 SE2       30.29R
TETERBORO      PTCLDY    32  22  66 SW7       30.27F WCI  26
$$

NYZ177-179-078>081-070500-
LONG ISLAND NEW YORK

CITY           SKY/WX    TMP DP  RH WIND       PRES   REMARKS
FARMINGDALE    CLEAR     33  24  69 SW6       30.29F WCI  28
ISLIP          PTCLDY    31  23  72 SW5       30.27F WCI  26
SHIRLEY        CLEAR     26  24  92 W5        30.29F WCI  20
RIVERHEAD        N/A     32  27  80 CALM      30.30F
WESTHAMPTON    CLEAR     21  19  92 CALM      30.30F
EAST HAMPTON   FAIR      23  22  96 CALM      30.29S
MONTAUK POINT    N/A     37  30  75 SW8       30.29F WCI  31
$$

NYZ052-065-067-070500-
HUDSON VALLEY

CITY           SKY/WX    TMP DP  RH WIND       PRES   REMARKS
WHITE PLAINS   PTCLDY    34  19  54 VRB3      30.25F
NEWBURGH       PTCLDY    32  21  64 CALM      30.24F
MONTGOMERY     PTCLDY    25  21  85 CALM      30.23S
POUGHKEEPSIE   PTCLDY    27  19  72 CALM      30.24F
ALBANY         CLOUDY    34  19  54 S9        30.20R WCI  27
$$

NJZ001-105-106-008-010-013-015-019>022-104-070500-
NEW JERSEY

CITY           SKY/WX    TMP DP  RH WIND       PRES   REMARKS
NEWARK/LIBERTY PTCLDY    34  23  64 SW8       30.29F WCI  27
TETERBORO      PTCLDY    32  22  66 SW7       30.27F WCI  26
CALDWELL       PTCLDY    30  21  69 CALM      30.28F
MORRISTOWN     PTCLDY    25  21  86 CALM      30.28F
SOMERVILLE     PTCLDY    24  20  84 CALM      30.27F
SUSSEX         CLOUDY    25  19  78 CALM      30.24F
ANDOVER          N/A     26  22  84 CALM      30.25F
TRENTON        CLEAR     32  22  66 CALM      30.28F
MILLVILLE      PTCLDY    27  26  96 CALM      30.30F
ATLANTIC CITY  PTCLDY    33  27  78 SW5       30.30F WCI  29
WRIGHTSTOWN    PTCLDY    28  28  99 SW3       30.27F
TOMS RIVER     CLEAR     28  23  80 SW5       30.30F WCI  23
BELMAR         CLEAR     30  18  59 W5        30.29F WCI  25
$$

PAZ047>061-062-071-070500-
EASTERN PENNSYLVANIA

CITY           SKY/WX    TMP DP  RH WIND       PRES   REMARKS
PHILADELPHIA   PTCLDY    33  26  75 CALM      30.31F
ALLENTOWN      PTCLDY    28  20  71 CALM      30.27S
SCRANTON       CLEAR     29  18  63 S3        30.21F
$$

CTZ002-004>006-009-010-012-RIZ004-006-007-MAZ004-011-015-070500-
SOUTHERN NEW ENGLAND
 IN CT

CITY           SKY/WX    TMP DP  RH WIND       PRES   REMARKS
BRADLEY INTL   PTCLDY    29  23  78 S7        30.24F WCI  22
HARTFORD       CLEAR     30  25  81 SE6       30.26F WCI  24
DANBURY        PTCLDY    33  17  51 SW6       30.25F WCI  28
WTRBRY/OXFORD  CLEAR     28  16  59 S3        30.24F
BRIDGEPORT     PTCLDY    37  28  70 W6        30.27F WCI  32
MERIDEN        FOG       21  17  84 CALM      30.27F VSB 1/2
NEW HAVEN      CLEAR     37  28  70 SW5       30.27F WCI  33
CHESTER        FAIR      34  30  86 SW5       30.27S WCI  30
GROTON         PTCLDY    36  32  85 W8        30.27F WCI  30
WILLIMANTIC    FOG       20  17  88 NE3       30.27S VSB 3/4

 IN RI

CITY           SKY/WX    TMP DP  RH WIND       PRES   REMARKS
PROVIDENCE     PTCLDY    31  25  78 W8        30.27F WCI  23
BLOCK ISLAND   CLEAR     37  28  70 W9        30.27F WCI  31
WESTERLY       CLEAR     36  29  75 SW7       30.28F WCI  30

 IN MA

CITY           SKY/WX    TMP DP  RH WIND       PRES   REMARKS
BOSTON         PTCLDY    31  25  78 SW9       30.24F WCI  23
WORCESTER      CLEAR     25  20  81 SW12      30.19F WCI  14
WESTFIELD      CLEAR     27  19  72 S10       30.22F WCI  17
PROVINCETOWN   CLEAR     35  27  72 SW22      30.25F WCI  23
NANTUCKET      CLEAR     38  29  70 SW12      30.28F WCI  30
$$

ANZ330-335-338-340-345-350-353-355-070500-
COASTAL MARINE OBSERVATIONS


STATION/POSITION TIME  SKY/WX   TEMP    WIND        PRES    VSBY  WAVE
                                AIR SEA DIR/SP/G                  HT/PER
                 (UTC)          (F)     (DEG/KT/KT) (MB)    (MI)  (FT/S)
NY HARB ENTRANCE 0250            40 44  240/ 14/ 16 1025.6          2/ 4
4S FIRE IS       NOT AVBL
20S FIRE ISLAND  0250            40 44  250/ 14/ 16 1025.9          3/ 4
GREAT SOUTH BAY  NOT AVBL
23SW MTP         0350            41 45  260/ 16/ 17 1025.2          3/ 4
HUDSON CANYON    0250            42 51              1026.5          3/ 9
KINGS POINT      0300            38 39  230/  7/  9 1025.3
EXECUTION ROCKS  NOT AVBL
CENTRAL LI SOUND 0300            38     220/ 12/ 14   N/A           2/ 3
EASTERN LI SOUND 0315            39 42  240/ 12/ 16   N/A
ROBBINS REEF     0300            38     230/ 10/ 13 1025.0
$$


>>>>>>>>>>>>>>>>>>>>>>>>>>>> KEY <<<<<<<<<<<<<<<<<<<<<<<<<<<
>                                                          <
>     SKY/WX - SKY CONDITION/PRESENT WEATHER               <
>     TMP    - TEMPERATURE IN FAHRENHEIT                   <
>     DP     - DEWPOINT IN FAHRENHEIT                      <
>     RH     - RELATIVE HUMIDITY IN PERCENT                <
>     WIND   - DIRECTION AND SPEED IN MPH                  <
>     PRES   - MEAN SEA LEVEL PRESSURE IN INCHES OF HG     <
>     WCI    - WIND CHILL INDEX                            <
>     VSB    - VISIBILITY IN MILES                         <
>     HX     - HEAT INDEX                                  <
>     TC     - TEMPERATURE IN CELSIUS                      <
>     VRB    - VARIABLE WIND DIRECTION                     <
>                                                          <
>>>>>>>>>>>>>>>>>>>>>>>>>>>> KEY <<<<<<<<<<<<<<<<<<<<<<<<<<<






USA.gov is the U.S. government's official web portal to all federal, state and local government web resources and services.